Location: Appleton
(44.2618°N, 88.4157°W)
Time: 11:55:24
(UTC+00:00)

S-56A Canister/Altair - Pass Details

Date: 04 March 2021
Orbit: 632 x 2500 km, 38.9° (Epoch: 18 April)

Event Time Altitude Azimuth Distance (km) Brightness Sun altitude
Rises 21:06:59 0° 255° (WSW) 5,759 13.1 25.2°
Reaches altitude 10° 21:10:31 10° 254° (WSW) 4,908 13.0 24.7°
Maximum altitude 21:25:04 71° 175° (S) 2,604 10.7 22.6°
Drops below altitude 10° 21:39:16 10° 95° (E) 4,799 11.2 20.5°
Sets 21:42:40 0° 94° (E) 5,629 11.5 19.9°
